Location: Home
(42.5358°N, 72.7383°W)
Time: 18:34:57
(UTC-05:00)

A-11 Canister half - Pass Details

Date: 29 November 2021
Orbit: 1516 x 1684 km, 47.2° (Epoch: 18 January)

Event Time Altitude Azimuth Distance (km) Brightness Sun altitude
Rises 14:14:53 0° 296° (WNW) 4,920 11.8 16.5°
Reaches altitude 10° 14:18:05 10° 293° (WNW) 3,940 11.4 16.2°
Maximum altitude 14:27:57 59° 218° (SW) 1,896 10.4 15.0°
Drops below altitude 10° 14:37:46 10° 142° (SE) 3,914 11.3 13.8°
Sets 14:40:56 0° 138° (SE) 4,885 11.7 13.4°
